Location: Coupvray
(48.8929°N, 2.7967°E)
Time: 08:49:01
(UTC+00:00)

COBE Rocket - Pass Details

Date: 14 July 2020
Orbit: 679 x 783 km, 97.1° (Epoch: 14 August)

Event Time Altitude Azimuth Distance (km) Brightness Sun altitude
Exits shadow 02:23:54 - 174° (S) 2,455 6.2 -12.0°
Reaches altitude 10° 02:24:21 10° 174° (S) 2,275 6.0 -12.0°
Maximum altitude 02:29:21 72° 259° (W) 782 3.9 -11.5°
Drops below altitude 10° 02:34:15 10° 344° (NNW) 2,225 6.9 -11.0°
Sets 02:36:31 0° 346° (NNW) 3,135 7.8 -10.8°
